Powrót do katalogu

STARLINK-2029

AktywnyŁącznośćVLEO
NORAD 48320·PAYLOAD·🇺🇸 United States

Wystrzelony Apr 29, 2021 z Cape Canaveral Space Force Station

Loading…

Następne Przeloty (najbliższe 24 godziny)

TLE

ŚwieżeSource: CelesTrak SupGP

Epoka: Sep 14, 2026, 21:22 UTC

1 48320C 21036AW  26257.89076389  .00010179  00000+0  32730-3 0  2573
2 48320  53.1576 300.9513 0001247  94.8546 249.6405 15.31699249    17

Śledź STARLINK-2029 w czasie rzeczywistym z AllMySat

Download on the App Store